Location: Gajan
(43.0218°N, 1.1244°E)
Time: 06:30:40
(UTC+00:00)

Cosmos 2180 Rocket - Pass Details

Date: 22 April 2021
Orbit: 953 x 1005 km, 82.9° (Epoch: 07 May)

Event Time Altitude Azimuth Distance (km) Brightness Sun altitude
Rises 20:19:34 0° 186° (S) 3,638 7.2 -16.0°
Reaches altitude 10° 20:22:04 10° 186° (S) 2,690 6.5 -16.4°
Maximum altitude 20:28:14 89° 279° (W) 963 4.4 -17.3°
Drops below altitude 10° 20:34:24 10° 8° (N) 2,690 7.2 -18.2°
Sets 20:36:53 0° 8° (N) 3,639 7.9 -18.6°
